STARLINK-35003

Last updated on Tue Sep 16 2025 00:02:07 GMT+0000 (Coordinated Universal Time)

1 65413U 25192K 25258.58341435 -.01474890 00000+0 -15543-1 0 9996 2 65413 53.1596 338.1061 0001317 77.4523 157.9997 15.66408716 3624
UTC large
Height (km)
Speed (km/s)
/
Latitude / Longitude
Inclination (degrees)
Orbital Period (minutes)
Azimuth
Elevation
Range (km)
Doppler Factor

Next 0 passes for location: London (51.5072 / 0.1276)

Sorry there are no passes over London.